Location: Yellowknife
(62.4500°N, 114.3500°W)
Time: 00:48:30
(UTC-07:00)

Envisat - Pass Details

Date: 01 October 2023
Orbit: 762 x 764 km, 98.3° (Epoch: 02 December)

Event Time Altitude Azimuth Distance (km) Brightness Sun altitude
Rises 04:37:26 0° 19° (NNE) 3,249 7.2 -21.1°
Reaches altitude 10° 04:39:59 10° 29° (NNE) 2,318 6.4 -20.9°
Maximum altitude 04:44:33 32° 93° (E) 1,302 4.6 -20.5°
Drops below altitude 10° 04:49:05 10° 156° (SSE) 2,303 5.4 -20.1°
Enters shadow 04:51:32 - 166° (SSE) 3,193 6.0 -19.8°
